Torna al catalogo

TITAN 3C TRANSTAGE DEB

LostHEO
NORAD 5632·DEBRIS·🇺🇸 United States

Lanciato Dec 21, 1965 da Cape Canaveral Space Force Station

Loading…

Prossimi Passaggi (prossime 24 ore)

TLE

ObsoletoSource: Space-Track

Epoca: Jul 15, 2026, 09:44 UTC

1 05632U 65108N   26196.40570014  .00002100  00000-0  35555-2 0  9999
2 05632  26.0808 327.7096 5581632 234.7379  59.7929  4.49858508344318

Traccia TITAN 3C TRANSTAGE DEB in tempo reale con AllMySat

Download on the App Store